Date String (YYYY-MM-DD hh:mm:ss) UTC,Instrument flags,Ambient pressure (hPa),Sample flow (lpm),Bypass flow (lpm),Sample temperature (°C),Ambient temperature (°C),ASC tube jacket temperature (°C),LED temperature (°C),Box temperature (°C),Sample RH (%),Span deviation,Mass concentration (μg/m³),Mass concentration (μg/m³),Mass concentration (μg/m³)
DateTimeUTC,F1_M11,P_M11,Q1_M11,Q2_M11,T1_M11,T2_M11,T3_M11,T4_M11,T5_M11,U1_M11,ZSPAN_M11,X0_M11,X2_M11,X1_M11
2021-08-30 17:00:00,,0826.1,5.00,0.00,29.5,27.2,00.0,38.6,31.1,25.1,0001.9,0035.24,0025.16,0023.80
2021-08-30 17:01:00,,0826.0,4.99,0.00,29.5,27.6,00.0,38.6,31.2,25.6,0002.1,0035.04,0025.20,0023.83
2021-08-30 17:02:00,,0826.1,5.01,0.00,29.5,27.9,00.0,38.6,31.3,25.9,0002.1,0035.40,0025.21,0023.82
2021-08-30 17:03:00,,0826.2,4.99,0.00,29.6,28.2,00.0,38.6,31.4,25.7,0001.9,0035.82,0025.20,0023.80
2021-08-30 17:04:00,,0826.2,5.00,0.00,29.6,28.4,00.0,38.6,31.4,26.2,0001.7,0035.77,0025.19,0023.75
2021-08-30 17:05:00,,0826.3,5.01,0.00,29.6,28.6,00.0,38.6,31.5,26.1,0001.9,0036.06,0025.16,0023.67
2021-08-30 17:06:00,,0826.3,4.99,0.00,29.7,28.7,00.0,38.7,31.6,25.4,0002.0,0035.99,0025.09,0023.56
2021-08-30 17:07:00,,0826.2,5.00,0.00,29.7,28.9,00.0,38.7,31.7,23.8,0002.1,0035.08,0024.98,0023.49
2021-08-30 17:08:00,,0826.1,4.99,0.00,29.8,28.8,00.0,38.7,31.6,22.9,0002.1,0037.09,0024.95,0023.48
2021-08-30 17:09:00,,0826.2,5.01,0.00,29.7,27.3,00.0,38.7,31.2,23.6,0002.0,0037.66,0024.93,0023.46
2021-08-30 17:10:00,,0826.1,4.99,0.00,29.6,26.3,00.0,38.7,30.9,25.0,0001.7,0037.47,0024.88,0023.39
2021-08-30 17:11:00,,0826.0,5.00,0.00,29.5,26.5,00.0,38.7,31.0,27.6,0001.8,0037.91,0024.81,0023.27
2021-08-30 17:12:00,,0826.0,5.00,0.00,29.5,26.9,00.0,38.7,31.0,28.1,0001.7,0038.76,0024.75,0023.16
2021-08-30 17:13:00,,0826.0,5.00,0.00,29.5,27.4,00.0,38.6,31.1,27.6,0001.7,0038.85,0024.71,0023.07
2021-08-30 17:14:00,,0826.0,5.00,0.00,29.5,27.7,00.0,38.6,31.2,26.7,0001.9,0038.69,0024.69,0023.04
2021-08-30 17:15:00,,0826.0,5.00,0.00,29.5,28.0,00.0,38.6,31.3,27.6,0002.2,0038.58,0024.61,0022.96
2021-08-30 17:16:00,,0825.9,5.00,0.00,29.6,28.3,00.0,38.6,31.4,28.5,0002.1,0038.76,0024.50,0022.87
2021-08-30 17:17:00,,0826.0,5.00,0.00,29.6,28.5,00.0,38.6,31.5,28.8,0002.1,0039.94,0024.39,0022.73
2021-08-30 17:18:00,,0826.0,4.99,0.00,29.7,28.7,00.0,38.6,31.6,28.8,0002.1,0040.25,0024.23,0022.53
2021-08-30 17:19:00,,0826.0,5.02,0.00,29.7,28.2,00.0,38.7,31.5,28.9,0002.1,0037.64,0023.97,0022.24
2021-08-30 17:20:00,,0826.0,4.99,0.00,29.6,26.7,00.0,38.7,31.0,29.2,0002.1,0036.19,0023.71,0021.99
2021-08-30 17:21:00,,0825.9,5.01,0.00,29.5,26.1,00.0,38.6,30.9,29.3,0002.2,0036.15,0023.56,0021.79
2021-08-30 17:22:00,,0826.0,5.00,0.00,29.4,26.5,00.0,38.6,30.9,28.4,0002.2,0035.24,0023.45,0021.67
2021-08-30 17:23:00,,0826.0,5.00,0.00,29.4,26.9,00.0,38.6,31.0,29.1,0002.1,0035.95,0023.41,0021.61
2021-08-30 17:24:00,,0826.0,5.00,0.00,29.4,27.4,00.0,38.5,31.1,29.8,0002.0,0036.15,0023.29,0021.49
2021-08-30 17:25:00,,0826.0,5.00,0.00,29.4,27.7,00.0,38.5,31.2,29.2,0001.9,0035.91,0023.09,0021.31
2021-08-30 17:26:00,,0826.0,5.00,0.00,29.5,28.0,00.0,38.5,31.3,29.6,0001.8,0037.00,0023.00,0021.16
2021-08-30 17:27:00,,0826.0,4.99,0.00,29.5,28.3,00.0,38.5,31.4,30.3,0001.8,0036.25,0022.86,0021.00
2021-08-30 17:28:00,,0826.0,5.01,0.00,29.6,28.5,00.0,38.6,31.4,30.2,0001.9,0035.19,0022.74,0020.87
2021-08-30 17:29:00,,0825.9,5.00,0.00,29.6,28.7,00.0,38.6,31.5,29.5,0002.0,0035.69,0022.65,0020.72
2021-08-30 17:30:00,,0826.0,5.00,0.00,29.7,28.5,00.0,38.6,31.5,28.9,0001.9,0036.00,0022.52,0020.64
2021-08-30 17:31:00,,0826.0,5.00,0.00,29.6,27.0,00.0,38.6,31.0,29.4,0002.0,0036.94,0022.46,0020.58
2021-08-30 17:32:00,,0826.0,5.00,0.00,29.4,26.1,00.0,38.6,30.8,30.9,0001.8,0036.30,0022.35,0020.46
2021-08-30 17:33:00,,0825.9,5.00,0.00,29.4,26.4,00.0,38.6,30.9,32.0,0001.6,0036.69,0022.18,0020.29
2021-08-30 17:34:00,,0825.9,5.00,0.00,29.3,26.8,00.0,38.5,30.9,31.5,0001.6,0035.57,0022.00,0020.09
2021-08-30 17:35:00,,0825.9,5.01,0.00,29.3,27.3,00.0,38.5,31.1,31.2,0001.6,0035.64,0021.94,0020.01
2021-08-30 17:36:00,,0825.9,4.99,0.00,29.4,27.7,00.0,38.5,31.2,31.3,0001.6,0037.04,0021.91,0019.92
2021-08-30 17:37:00,,0825.9,5.00,0.00,29.4,28.0,00.0,38.5,31.2,31.7,0001.6,0036.39,0021.79,0019.81
2021-08-30 17:38:00,,0825.8,5.00,0.00,29.5,28.2,00.0,38.5,31.3,31.9,0001.6,0036.22,0021.69,0019.73
2021-08-30 17:39:00,,0825.7,5.00,0.00,29.5,28.5,00.0,38.5,31.4,30.3,0001.7,0036.33,0021.65,0019.71
2021-08-30 17:40:00,,0825.9,5.01,0.00,29.6,28.6,00.0,38.5,31.5,29.8,0001.7,0036.02,0021.63,0019.70
2021-08-30 17:41:00,,0825.7,4.99,0.00,29.6,28.6,00.0,38.6,31.5,30.7,0001.5,0036.74,0021.65,0019.63
2021-08-30 17:42:00,,0825.7,5.00,0.00,29.6,27.3,00.0,38.6,31.2,30.9,0001.5,0036.91,0021.62,0019.53
2021-08-30 17:43:00,,0825.7,5.01,0.00,29.5,26.1,00.0,38.6,30.9,31.1,0001.4,0037.41,0021.51,0019.42
2021-08-30 17:44:00,,0825.7,5.01,0.00,29.4,26.3,00.0,38.5,30.9,31.4,0001.5,0037.22,0021.59,0019.39
2021-08-30 17:45:00,,0825.7,4.99,0.00,29.3,26.7,00.0,38.5,31.0,31.9,0001.5,0037.76,0021.60,0019.43
2021-08-30 17:46:00,,0825.7,4.99,0.00,29.3,27.2,00.0,38.5,31.0,32.3,0001.4,0037.63,0021.55,0019.39
2021-08-30 17:47:00,,0825.7,5.00,0.00,29.4,27.6,00.0,38.5,31.1,32.1,0001.4,0036.22,0021.51,0019.37
2021-08-30 17:48:00,,0825.7,5.00,0.00,29.4,27.9,00.0,38.5,31.2,33.6,0001.1,0035.84,0021.46,0019.33
2021-08-30 17:49:00,,0825.7,5.01,0.00,29.5,28.2,00.0,38.5,31.3,34.2,0001.0,0036.59,0021.48,0019.28
2021-08-30 17:50:00,,0825.7,4.99,0.00,29.5,28.4,00.0,38.5,31.4,34.0,0000.7,0037.11,0021.40,0019.17
2021-08-30 17:51:00,,0825.7,4.99,0.00,29.6,28.6,00.0,38.5,31.5,33.0,0000.6,0037.24,0021.23,0019.07
2021-08-30 17:52:00,,0825.8,5.00,0.00,29.6,28.3,00.0,38.5,31.4,32.5,0000.9,0036.81,0021.18,0019.05
2021-08-30 17:53:00,,0825.7,5.01,0.00,29.5,26.7,00.0,38.5,31.0,33.6,0000.9,0036.02,0021.12,0019.02
2021-08-30 17:54:00,,0825.7,4.99,0.00,29.4,26.1,00.0,38.5,30.8,33.3,0001.0,0035.45,0021.13,0019.03
2021-08-30 17:55:00,,0825.6,5.01,0.00,29.3,26.4,00.0,38.5,30.8,32.6,0001.0,0035.21,0021.09,0019.09
2021-08-30 17:56:00,,0825.6,4.98,0.00,29.3,26.8,00.0,38.5,31.0,32.4,0001.0,0034.91,0021.16,0019.16
2021-08-30 17:57:00,,0825.6,5.00,0.00,29.3,27.3,00.0,38.4,31.0,32.2,0001.2,0035.18,0021.23,0019.25
2021-08-30 17:58:00,,0825.7,5.00,0.00,29.4,27.7,00.0,38.4,31.1,33.1,0001.3,0035.57,0021.31,0019.31
2021-08-30 17:59:00,,0825.7,5.02,0.00,29.4,28.0,00.0,38.4,31.2,32.1,0001.6,0035.54,0021.40,0019.38
